User: anonymous   Login
Location: Harbor Island
(32.3990°N, 80.4435°W)
Time: 15:25:29
(UTC-04:00)
Language:

Cosmos 1455 - Orbit

View from above orbital plane
View from above orbital plane
View from above satellite
View from above satellite

Ground track
Ground track

The orbit data is extracted from the following two-line orbital elements,

1 14032U 83037A   15116.53329542  .00003691  00000-0  19971-3 0  9997
2 14032 082.5168 138.7227 0020619 112.1442 002.4335 15.14168780742815
Epoch (UTC): 26 April 2015 12:47:56
Eccentricity: 0.0020619
inclination: 82.5168°
perigee height: 509 km
apogee height: 538 km
right ascension of ascending node: 138.7227°
argument of perigee: 112.1442°
revolutions per day: 15.14168780
mean anomaly at epoch: 2.4335°
orbit number at epoch: 74281

The dashed part of the orbit path shows where the satellite is in the earth's shadow,  

DLR